Location: Amsterdam
(30.7274°N, 84.4357°W)
Time: 21:06:48
(UTC+00:00)

Transit 2A Rocket - Pass Details

Date: 21 February 2026
Orbit: 583 x 900 km, 66.7° (Epoch: 8 March)

Event Time Altitude Azimuth Distance (km) Brightness Sun altitude
Rises 19:38:44 0° 189° (S) 3,416 9.0 41.5°
Reaches altitude 10° 19:41:14 10° 184° (S) 2,513 8.5 41.2°
Maximum altitude 19:46:54 50° 110° (ESE) 1,126 6.2 40.4°
Drops below altitude 10° 19:52:41 10° 37° (NE) 2,574 7.4 39.7°
Sets 19:55:16 0° 32° (NNE) 3,507 7.9 39.3°
